Lewistown, MT

6:57 AM MDT on April 30, 2017 (GMT -0600)
Lewistown Municipal

Weather History for KLWT - February, 2013

Change the Weather History Date:

Monday, February 4, 2013

  Actual Average Record
Temperature  
Mean Temperature 33 °F 24 °F  
Max Temperature 41 °F 35 °F 62 °F (1941)
Min Temperature 25 °F 14 °F -37 °F (1989)
Degree Days  
Heating Degree Days 32 40  
Month to date heating degree days 140 163  
Since 1 July heating degree days 4565 4868  
Cooling Degree Days 0 0  
Month to date cooling degree days 0 0  
Year to date cooling degree days 0 0  
Moisture  
Dew Point 25 °F    
Average Humidity 66    
Maximum Humidity 78    
Minimum Humidity 54    
Precipitation  
Precipitation 0.00 in 0.02 in 0.20 in (1900)
Month to date precipitation 0.02 0.07  
Year to date precipitation 1.01 0.64  
Snow  
Snow 0.00 in - - ()
Snow Depth 3.00 in    
Sea Level Pressure  
Sea Level Pressure 29.87 in    
Wind  
Wind Speed 11 mph (West)    
Max Wind Speed 24 mph    
Max Gust Speed 30 mph    
Visibility 10 miles    
Events      
T = Trace of Precipitation, MM = Missing Value Source: NWS Daily Summary

Daily Weather History Graph

Daily Weather History Graph

Search for Another Location

Airport or City:

Trip Planner

Search our weather history database for the weather conditions in past years. The results will help you decide how hot, cold, wet, or windy it might be!

Date:

Astronomy

Feb. 04, 2013 Rise Set
Actual Time 7:38 AM MST 5:25 PM MST
Civil Twilight 7:06 AM MST 5:58 PM MST
Nautical Twilight 6:29 AM MST 6:34 PM MST
Astronomical Twilight 5:54 AM MST 7:09 PM MST
Moon 2:23 AM MST (2/4) 11:46 AM MST (2/4)
Length of Visible Light 10h 51m
Length of Day
9h 47m
Last Quarter, 36% of the Moon is Illuminated
Feb 4
Last Quarter
Feb 10
New
Feb 17
First Quarter
Feb 25
Full
Mar 4
Last Quarter

Hourly Weather History & Observations

Time (MST) Temp. Windchill Dew Point Humidity Pressure Visibility Wind Dir Wind Speed Gust Speed Precip Events Conditions
12:54 AM 25.0 °F - 17.1 °F 72% 29.91 in 10.0 mi Calm Calm - N/A   Overcast
1:54 AM 28.9 °F 22.8 °F 21.9 °F 75% 29.89 in 10.0 mi WSW 5.8 mph - N/A   Overcast
3:54 AM 34.0 °F 25.0 °F 24.1 °F 67% 29.85 in 10.0 mi WSW 12.7 mph - N/A   Overcast
4:54 AM 33.1 °F 24.4 °F 24.1 °F 70% 29.86 in 10.0 mi WSW 11.5 mph - N/A   Overcast
5:54 AM 34.0 °F 23.4 °F 24.1 °F 67% 29.86 in 10.0 mi WSW 17.3 mph - N/A   Mostly Cloudy
6:54 AM 34.0 °F 25.5 °F 26.1 °F 73% 29.87 in 10.0 mi WSW 11.5 mph - N/A   Overcast
7:54 AM 35.1 °F 24.8 °F 25.0 °F 67% 29.86 in 10.0 mi WSW 17.3 mph - N/A   Overcast
8:54 AM 35.1 °F 25.5 °F 25.0 °F 67% 29.86 in 10.0 mi WSW 15.0 mph - N/A   Overcast
9:54 AM 36.0 °F - 26.1 °F 67% 29.87 in 10.0 mi Calm Calm - N/A   Overcast
10:54 AM 39.0 °F 33.4 °F 26.1 °F 60% 29.87 in 10.0 mi WNW 8.1 mph - N/A   Overcast
11:54 AM 39.9 °F 31.8 °F 25.0 °F 55% 29.85 in 10.0 mi WNW 15.0 mph - N/A   Mostly Cloudy
12:54 PM 37.9 °F 29.2 °F 27.0 °F 65% 29.84 in 10.0 mi West 15.0 mph - N/A   Clear
1:54 PM 41.0 °F 32.5 °F 26.1 °F 55% 29.80 in 10.0 mi West 17.3 mph 23.0 mph N/A   Partly Cloudy
2:54 PM 39.9 °F 30.5 °F 26.1 °F 58% 29.79 in 10.0 mi West 19.6 mph 25.3 mph N/A   Clear
3:54 PM 37.9 °F 27.9 °F 28.0 °F 68% 29.80 in 10.0 mi WSW 19.6 mph - N/A   Partly Cloudy
5:54 PM 34.0 °F 25.5 °F 26.1 °F 73% 29.85 in 10.0 mi West 11.5 mph - N/A   Scattered Clouds
6:54 PM 37.0 °F 30.4 °F 24.1 °F 59% 29.86 in 10.0 mi WNW 9.2 mph - N/A   Clear
7:54 PM 36.0 °F 28.5 °F 24.1 °F 62% 29.88 in 10.0 mi WNW 10.4 mph 18.4 mph N/A   Mostly Cloudy
8:54 PM 35.1 °F 30.1 °F 25.0 °F 67% 29.90 in 10.0 mi WNW 5.8 mph - N/A   Overcast
9:54 PM 33.1 °F 30.0 °F 25.0 °F 72% 29.92 in 10.0 mi SSW 3.5 mph - N/A   Overcast
10:54 PM 30.9 °F 23.5 °F 24.1 °F 76% 29.92 in 10.0 mi WSW 8.1 mph - N/A   Mostly Cloudy
11:54 PM 32.0 °F 25.6 °F 23.0 °F 69% 29.94 in 10.0 mi West 6.9 mph - N/A   Overcast